Regional Weather Roundup
Issued by NWS

Home | Current Version | Previous Version | Graphics & Text | Print | Product List | Glossary Off
Versions: 1 2 3 4 5 6 7 8 9 10 11 12 13 14 15 16 17 18 19 20 21 22 23 24 25 26 27 28 29 30 31 32 33 34 35 36 37 38 39 40 41 42 43 44 45 46 47 48 49 50

000
ASUS43 KMPX 240101
RWRMN
WEATHER ROUNDUP FOR MINNESOTA
NATIONAL WEATHER SERVICE TWIN CITIES/CHANHASSEN MN
800 PM CDT MON OCT 23 2017


NOTE: "FAIR" INDICATES FEW OR NO CLOUDS BELOW 12,000 FEET WITH NO
SIGNIFICANT WEATHER AND/OR OBSTRUCTIONS TO VISIBILITY. N/A MEANS
CURRENT SKY AND/OR WEATHER CONDITIONS ARE NOT AVAILABLE.

MNZ060>063-068>070-240200-
   Twin Cities Metro

CITY           SKY/WX    TMP DP  RH WIND       PRES   REMARKS
TWIN CITIES    CLOUDY    49  32  52 N17G25    29.86R
ST PAUL        CLOUDY    49  32  52 NW20G31   29.86R
CRYSTAL        CLOUDY    49  28  44 N12       29.85S
BLAINE         CLOUDY    50  30  46 NW16G23   29.85R
LAKEVILLE      CLOUDY    46  28  49 NW13G24   29.85S
EDEN PRAIRIE   CLOUDY    50  28  42 NW13G23   29.85R
SOUTH ST PAUL  CLOUDY    49  30  47 NW21G30   29.84S
LAKE ELMO      CLOUDY    46  32  57 NW17G23   29.84S
$$
MNZ001>005-007-008-013>017-022>024-027-028-240200-
   Northwest Minnesota

CITY           SKY/WX    TMP DP  RH WIND       PRES   REMARKS
BEMIDJI        CLOUDY    39  28  63 NW14      29.98R
HALLOCK        CLOUDY    41  27  56 N22G30    30.11R
ROSEAU         CLOUDY    43  32  65 NW16G23   30.03R
WARROAD        CLOUDY    41  34  75 NW14G21   30.03R
CROOKSTON      CLEAR     37  28  70 N14       30.09R
FOSSTON        CLOUDY    36  25  64 N20G28    30.04R
DETROIT LAKES  CLEAR     41  32  70 N22G29    30.01R
MOORHEAD       PTCLDY    43  28  56 N21       30.07R
PARK RAPIDS    MOCLDY    42  29  59 NW17G28   29.96R
MAHNOMEN       FAIR      38  28  68 N16       30.03R
$$
MNZ006-009>011-018-025>026-240200-
   North Central Minnesota

CITY           SKY/WX    TMP DP  RH WIND       PRES   REMARKS
BAUDETTE       LGT RAIN  41  35  79 NW21G35   29.98R
FLAG ISLAND    CLOUDY    43  36  75 N25G32    30.00R
INTL FALLS     CLOUDY    42  32  67 N17G23    29.92R
WASKISH        CLOUDY    41  32  70 NW12G17   29.97R
BIG FORK       CLOUDY    43  32  65 NW6       29.92R
LONGVILLE      CLEAR     43  28  56 NW10G22   29.92S
GRAND RAPIDS   CLOUDY    43  32  65 N18       29.91R
CRANE LAKE     MIX PCPN  41  36  81 NW13G24   29.89S
ORR            CLOUDY    43  34  70 NW9G17    29.85S
COOK           LGT RAIN  41  36  81 NW8G21    29.87S
WALKER         FAIR      39  27  60 NW14G23   29.95S
$$
MNZ012-019>021-037-240200-
   Northeast Minnesota

CITY           SKY/WX    TMP DP  RH WIND       PRES   REMARKS
DULUTH         CLOUDY    42  39  89 NW17G35   29.79S
ELY            CLOUDY    43  37  81 NW13G21   29.81F
HIBBING        CLOUDY    42  33  70 NW24G31   29.85R
EVELETH        MOCLDY    42  37  80 NW17G26   29.85S
DULUTH HARBOR  CLOUDY    48  43  81 NW13G24   29.81S
TWO HARBORS    CLOUDY    50  39  66 NW10G24   29.75R
SILVER BAY     CLOUDY    46  39  76 NW8G21    29.75R
GRAND MARAIS     N/A     52  43  71 NW15G29   29.67F
G MARAIS ARPRT MOCLDY    45  37  76 NW8       29.72S
$$
MNZ029>031-032-039>041-046>048-054>057-064-240200-
   West Central Minnesota

CITY           SKY/WX    TMP DP  RH WIND       PRES   REMARKS
FERGUS FALLS   PTCLDY    45  32  61 N13G21    30.00R
WHEATON        CLOUDY    50  34  53 NW23G30   30.02R
MORRIS         MOCLDY    48  34  57 N14G22    29.96R
ALEXANDRIA     CLEAR     46  31  55 NW12      29.97R
ELBOW LAKE     FAIR      46  34  64 NW13      29.99R
WADENA         CLEAR     43  28  56 NW13G24   29.95R
GLENWOOD       CLEAR     45  32  61 NW13      29.96R
APPLETON       MOCLDY    52  34  50 NW15G21   29.97R
BENSON         CLEAR     45  32  61 N8        29.98R
ORTONVILLE     PTCLDY    52  36  54 NW20G26   29.99R
MADISON        MOCLDY    52  36  54 NW12      29.99R
WILLMAR        FAIR      46  32  57 NW10      29.95S
$$
MNZ033>034-036-042>043-049>051-058-059-240200-
   Central Minnesota

CITY           SKY/WX    TMP DP  RH WIND       PRES   REMARKS
ST CLOUD       CLOUDY    46  28  49 NW20G26   29.89R
SAUK CENTRE    FAIR      46  28  50 NW16G23   29.94R
PAYNESVILLE    CLEAR     47  29  50 NW15G23   29.93S
AITKIN         CLOUDY    43  28  56 NW13G26   29.88R
PINE RIVER     CLEAR     41  27  56 NW10G21   29.96R
BRAINERD       PTCLDY    45  26  47 NW16      29.92R
STAPLES        CLEAR     43  27  52 NW18      29.94R
LONG PRAIRIE   FAIR      45  28  53 W17G25    29.94R
LITTLE FALLS   CLEAR     45  21  39 NW7G20    29.91S
LITCHFIELD     CLEAR     48  30  49 NW16G29   29.92R
BUFFALO        CLOUDY    49  29  45 NW13G21   29.89R
MAPLE LAKE     CLOUDY    49  32  52 NW16G24   29.89S
HUTCHINSON     PTCLDY    49  33  54 NW13G22   29.92R
$$
MNZ037-044-045-052-053-240200-
   East Central Minnesota

CITY           SKY/WX    TMP DP  RH WIND       PRES   REMARKS
PRINCETON      CLOUDY    48  27  43 NW15G22   29.87S
MORA           DRIZZLE   45  32  61 N12G25    29.87R
CAMBRIDGE      CLOUDY    50  34  53 NW10G16   29.85F
RUSH CITY      LGT RAIN  45  36  70 NW21G30   29.85S
MOOSE LAKE     CLOUDY    45  37  76 NW12G17   29.83R
HINCKLEY       CLOUDY    45  36  70 NW16G23   29.84S
CLOQUET        CLOUDY    43  36  75 NW18G26   29.83R
MCGREGOR       CLOUDY    45  34  65 NW13G20   29.88R
$$
MNZ071>073-080-081-089-090-097-098-240200-
   Southwest Minnesota

CITY           SKY/WX    TMP DP  RH WIND       PRES   REMARKS
MONTEVIDEO     CLEAR     46  32  57 N9        29.97R
GRANITE FALLS  PTCLDY    48  34  59 W8        29.98S
CANBY          PTCLDY    51  34  52 W16G24    30.00S
MARSHALL       CLEAR     47  32  56 NW14      29.98R
REDWOOD FALLS  CLEAR     50  29  44 NW9G25    29.94R
OLIVIA         CLEAR     50  32  50 NW13      29.93S
PIPESTONE      MOCLDY    48  32  53 NW15      30.00S
WORTHINGTON    CLEAR     46  32  58 NW14      29.98S
JACKSON        CLEAR     45  28  53 NW12      29.95S
TRACY          CLEAR     49  33  54 NW14      29.98R
SLAYTON        PTCLDY    46  32  57 NW16      29.99S
$$
MNZ065>067-074>077-082>085-091>093-240200-
   South Central Minnesota

CITY           SKY/WX    TMP DP  RH WIND       PRES   REMARKS
NEW ULM          N/A     50  28  43 NW23G30   29.90F
ST JAMES       CLOUDY    50  30  46 NW16      29.92S
FAIRMONT       CLOUDY    50  31  48 NW20G25   29.91S
GLENCOE        CLOUDY    51  29  42 NW18G35   29.89S
FARIBAULT      CLOUDY    48  30  49 NW10      29.86S
OWATONNA       CLOUDY    48  30  49 NW14G24   29.85F
WASECA         CLOUDY    50  32  50 NW9G25    29.88S
$$
MNZ078>079-086>088-094>096-240200-
   Southeast Minnesota

CITY           SKY/WX    TMP DP  RH WIND       PRES   REMARKS
ROCHESTER      CLOUDY    47  37  68 NW25G36   29.80S
RED WING       CLOUDY    48  34  57 NW16G25   29.80S
STANTON        CLOUDY    49  32  51 NW14G24   29.83S
DODGE CENTER   CLOUDY    46  34  61 NW24G32   29.83R
WINONA         MOCLDY    52  41  66 NW14G24   29.76R
AUSTIN         CLOUDY    48  27  43 NW22G31   29.83S
PRESTON        CLOUDY    46  38  76 NW16G28   29.79R
$$
ABBREVIATIONS USED IN REMARKS
   TC - TEMPERATURES IN CELSIUS
  WCI - WIND CHILL INDEX
   HX - HEAT INDEX
  VSB - VISIBILITY
$$




USA.gov is the U.S. government's official web portal to all federal, state and local government web resources and services.